Regional Weather Roundup
Issued by NWS Newport/Morehead, NC

Current Version | Previous Version | Graphics & Text | Print | Product List | Glossary Off
Versions: 1 2 3 4 5 6 7 8 9 10 11 12 13 14 15 16 17 18 19 20 21 22 23 24 25 26 27 28 29 30 31 32 33 34 35 36 37 38 39 40 41 42 43 44 45 46 47 48 49 50

937
ASUS42 KMHX 260725
RWRMHX
WEATHER ROUNDUP FOR EASTERN NORTH CAROLINA
NATIONAL WEATHER SERVICE NEWPORT/MOREHEAD CITY NC
300 AM EDT MON SEP 26 2016

NOTE: "FAIR" INDICATES FEW OR NO CLOUDS BELOW 12,000 FEET
WITH NO SIGNIFICANT WEATHER AND/OR OBSTRUCTIONS TO VISIBILITY

NCZ015>017-031-032-045>047-102-103-260800-
NORTH COAST

CITY           SKY/WX    TMP DP  RH WIND       PRES   REMARKS
EDENTON        CLEAR     64  64 100 CALM      30.15F
ELIZABETH CITY MOCLDY    66  58  75 NE3       30.15F
KITTY HAWK     NOT AVBL
MANTEO         CLEAR     62  58  86 NE3       30.14F

$$

NCZ045>047-081-094-103-104-260800-
CENTRAL COAST

CITY           SKY/WX    TMP DP  RH WIND       PRES   REMARKS
FRISCO         CLEAR     69  59  70 NE7       30.11F

$$

NCZ095-097-098-100-101-260800-
SOUTHERN COAST

CITY           SKY/WX    TMP DP  RH WIND       PRES   REMARKS
BEAUFORT       CLOUDY    70  60  70 NE6       30.11S
CEDAR ISLAND   NOT AVBL
JACKSONVILLE   CLOUDY    68  62  81 N6        30.12S
PINEY ISLAND   SUNNY    N/A N/A N/A NE8       30.11F
WILMINGTON     CLOUDY    68  63  84 NE7       30.11F


$$

NCZ011>013-027>030-043-044-078>080-089-090>093-098-260800-
COASTAL PLAIN

CITY           SKY/WX    TMP DP  RH WIND       PRES   REMARKS
AHOSKIE        PTCLDY    63  60  90 NE3       30.14F
CLINTON        CLOUDY    67  64  87 CALM      30.14F
ELIZABETHTOWN  CLOUDY    68  63  83 CALM      30.12F
GOLDSBORO      PTCLDY    65  65  98 E1        30.12F
GREENVILLE     MOCLDY    64  61  88 E3        30.15S FOG
HAVELOCK       CLOUDY    69  63  81 N5        30.13S
KENANSVILLE    CLOUDY    66  61  82 CALM      30.14S
KINSTON        MOCLDY    64  62  92 CALM      30.14F
NEW BERN       CLOUDY    67  60  78 NE5       30.14S
RICHLANDS      CLOUDY    65  62  90 NE3       30.13S
ROCKY MOUNT    CLOUDY    66  62  87 CALM      30.14F
WASHINGTON     CLOUDY    63  59  88 E5        30.14F
WHITEVILLE     NOT AVBL

$$

AMZ130-135-150-152-154-156-158-170-250-252-270-ANZ085-086-088-633-658-670-260800-
MARINE OBSERVATIONS

STATION/POSITION TIME  TEMP    WIND        PRES    WAVE   SWELL
                       AIR SEA DIR/SP/G            HT/PER HT/PER
                 (UTC) (F)     (DEG/KT/KT) (MB)    (FT/S) (FT/S)
CHESAPEAKE LIGHT NOT AVBL
64 E VA BEACH    0650   70 73   50/  8/ 10 1020.4    4/10   3/10
DUCK             0700   70 77   70/  6/  9 1020.2
2 E DUCK         0641      76                N/A     3/10
OREGON INLET     0700   69 77   20/  8/ 10 1019.9
13E OREGON INLT  0600      76                N/A     4/ 8   3/ 8
HATTERAS CG      0700   71 78   40/  8/ 12 1019.1
DIAMOND BUOY     0650   74 84   40/ 14/ 17 1018.7    3/ 8   3/ 8
CAPE LOOKOUT     0700   74      50/ 12/ 14 1019.0
BEAUFORT LAB     0700   70 77   20/  4/  6 1019.0
30 SE NEW RVR IN 0608   77 81   70/ 14/ 19 1019.0
30 SE NEW RVR IN 0555      81                N/A     4/10
27 SE WRIGHTSVLE 0608   78 81   90/ 12/ 17 1019.2
5 SE WRIGHTSVLE  NOT AVBL
225 S CAPE HAT   0650   81 83   70/ 10/ 10 1016.9    5/ 8   5/ 8
41 SE CHARLESTON 0650   78 82   90/  8/ 14 1017.1    5/ 6   5/ 6

$$




USA.gov is the U.S. government's official web portal to all federal, state and local government web resources and services.